Total_Precipitation_Accumulation
0.00 0.00 0.00 0.00 0.00 0.00 0.00 0.00 0.00 0.00 0.00 0.01 0.01 0.01 0.01 0.00 0.00 0.01 0.01 0.00 0.00 0.00 0.00 0.00 0.00 0.00 0.00 0.00 0.00 0.00 0.00 0.00 0.00 0.00 0.00 0.00 0.00 0.00 0.00 0.00 0.00 0.00 0.00
0.00 0.00 0.00 0.00 0.00 0.00 0.00 0.00 0.00 0.00 0.01 0.03 0.01 0.02 0.03 0.03 0.02 0.03 0.02 0.02 0.00 0.00 0.00 0.00 0.00 0.00 0.00 0.00 0.00 0.00 0.00 0.00 0.00 0.00 0.00 0.00 0.00 0.00 0.00 0.00 0.00 0.00 0.00
0.00 0.00 0.00 0.00 0.00 0.00 0.00 0.00 0.00 0.00 0.01 0.02 0.01 0.03 0.05 0.02 0.01 0.02 0.01 0.02 0.00 0.00 0.00 0.00 0.00 0.00 0.00 0.00 0.00 0.00 0.00 0.01 0.01 0.00 0.00 0.00 0.00 0.00 0.00 0.00 0.00 0.00 0.00
0.00 0.00 0.00 0.00 0.00 0.00 0.00 0.00 0.01 0.01 0.02 0.01 0.00 0.03 0.03 0.00 0.00 0.01 0.01 0.02 0.00 0.02 0.01 0.00 0.00 0.00 0.00 0.00 0.01 0.04 0.06 0.09 0.08 0.11 0.09 0.07 0.02 0.00 0.00 0.00 0.00 0.00 0.00
0.00 0.00 0.00 0.00 0.00 0.00 0.00 0.00 0.04 0.01 0.06 0.02 0.01 0.02 0.03 0.01 0.00 0.00 0.00 0.01 0.01 0.01 0.01 0.00 0.00 0.00 0.02 0.07 0.10 0.17 0.19 0.18 0.16 0.16 0.11 0.06 0.03 0.01 0.00 0.00 0.00 0.00 0.00
0.00 0.00 0.00 0.00 0.00 0.00 0.00 0.01 0.02 0.01 0.06 0.07 0.01 0.03 0.03 0.01 0.00 0.00 0.01 0.01 0.02 0.00 0.01 0.00 0.03 0.10 0.14 0.24 0.24 0.22 0.18 0.19 0.19 0.14 0.08 0.05 0.03 0.02 0.01 0.00 0.00 0.00 0.00
0.00 0.00 0.00 0.00 0.00 0.00 0.00 0.01 0.01 0.01 0.04 0.09 0.03 0.04 0.03 0.01 0.01 0.03 0.03 0.01 0.01 0.01 0.01 0.04 0.06 0.12 0.19 0.24 0.26 0.23 0.20 0.18 0.15 0.10 0.11 0.09 0.02 0.01 0.00 0.00 0.00 0.00 0.00
0.00 0.00 0.00 0.00 0.00 0.00 0.00 0.00 0.01 0.02 0.10 0.08 0.05 0.05 0.05 0.04 0.03 0.04 0.05 0.03 0.02 0.02 0.04 0.07 0.11 0.13 0.17 0.27 0.28 0.25 0.22 0.16 0.13 0.14 0.12 0.06 0.03 0.02 0.00 0.00 0.00 0.00 0.00
0.00 0.00 0.00 0.00 0.00 0.00 0.00 0.00 0.00 0.02 0.09 0.09 0.06 0.07 0.05 0.04 0.03 0.06 0.06 0.06 0.04 0.09 0.14 0.12 0.08 0.14 0.22 0.21 0.23 0.24 0.25 0.20 0.19 0.19 0.18 0.19 0.19 0.12 0.02 0.00 0.00 0.00 0.01
0.00 0.00 0.00 0.00 0.00 0.00 0.00 0.00 0.00 0.00 0.04 0.06 0.05 0.12 0.09 0.08 0.08 0.05 0.09 0.11 0.09 0.13 0.13 0.13 0.09 0.13 0.21 0.19 0.20 0.16 0.10 0.05 0.05 0.11 0.19 0.22 0.18 0.11 0.02 0.00 0.00 0.00 0.03
0.00 0.00 0.00 0.00 0.00 0.00 0.00 0.00 0.00 0.00 0.00 0.03 0.12 0.11 0.10 0.12 0.09 0.08 0.11 0.14 0.15 0.17 0.20 0.17 0.12 0.12 0.12 0.17 0.16 0.10 0.04 0.01 0.01 0.00 0.00 0.00 0.00 0.00 0.00 0.00 0.00 0.00 0.01
0.00 0.00 0.00 0.00 0.00 0.00 0.00 0.00 0.00 0.00 0.00 0.03 0.10 0.11 0.12 0.09 0.06 0.07 0.11 0.12 0.14 0.15 0.15 0.11 0.07 0.05 0.06 0.11 0.08 0.05 0.02 0.03 0.04 0.06 0.05 0.05 0.04 0.05 0.05 0.04 0.06 0.08 0.09
0.00 0.00 0.00 0.00 0.00 0.00 0.00 0.00 0.00 0.00 0.00 0.01 0.06 0.06 0.05 0.06 0.08 0.11 0.15 0.16 0.17 0.15 0.12 0.09 0.09 0.12 0.15 0.14 0.11 0.09 0.11 0.15 0.16 0.14 0.11 0.10 0.12 0.14 0.14 0.14 0.11 0.07 0.05
0.00 0.00 0.00 0.00 0.00 0.00 0.00 0.00 0.00 0.00 0.01 0.04 0.04 0.03 0.04 0.07 0.12 0.15 0.15 0.22 0.21 0.17 0.13 0.15 0.22 0.31 0.36 0.31 0.25 0.21 0.19 0.15 0.13 0.10 0.10 0.13 0.14 0.13 0.13 0.10 0.05 0.03 0.02
0.00 0.00 0.00 0.00 0.00 0.00 0.00 0.00 0.00 0.00 0.02 0.05 0.05 0.06 0.09 0.14 0.16 0.21 0.22 0.22 0.19 0.20 0.25 0.32 0.37 0.42 0.45 0.43 0.37 0.29 0.20 0.15 0.16 0.17 0.19 0.19 0.17 0.14 0.09 0.05 0.03 0.02 0.02
0.00 0.00 0.00 0.00 0.00 0.00 0.00 0.00 0.00 0.00 0.02 0.04 0.07 0.11 0.14 0.13 0.14 0.18 0.23 0.22 0.24 0.26 0.30 0.28 0.39 0.41 0.38 0.44 0.37 0.28 0.27 0.29 0.27 0.25 0.22 0.20 0.16 0.10 0.06 0.02 0.01 0.01 0.01
0.00 0.00 0.00 0.00 0.00 0.00 0.00 0.00 0.00 0.00 0.01 0.05 0.08 0.12 0.14 0.18 0.20 0.22 0.23 0.26 0.31 0.35 0.42 0.40 0.36 0.33 0.35 0.39 0.28 0.25 0.27 0.27 0.23 0.18 0.16 0.14 0.12 0.11 0.05 0.04 0.02 0.00 0.00
0.00 0.00 0.00 0.00 0.00 0.00 0.00 0.00 0.00 0.00 0.02 0.04 0.08 0.12 0.17 0.24 0.22 0.23 0.24 0.26 0.31 0.36 0.40 0.39 0.38 0.35 0.37 0.40 0.31 0.34 0.31 0.25 0.17 0.14 0.12 0.10 0.09 0.06 0.04 0.01 0.00 0.00 0.00
0.00 0.00 0.00 0.00 0.00 0.00 0.00 0.00 0.00 0.00 0.02 0.03 0.04 0.10 0.16 0.19 0.19 0.20 0.18 0.17 0.16 0.18 0.20 0.23 0.26 0.27 0.33 0.41 0.34 0.33 0.29 0.22 0.16 0.12 0.10 0.07 0.05 0.05 0.02 0.00 0.00 0.00 0.00
0.00 0.00 0.00 0.00 0.00 0.00 0.00 0.00 0.00 0.00 0.00 0.00 0.02 0.07 0.12 0.16 0.19 0.18 0.16 0.15 0.15 0.17 0.17 0.23 0.26 0.36 0.37 0.45 0.35 0.31 0.22 0.17 0.16 0.18 0.20 0.20 0.11 0.04 0.01 0.00 0.01 0.01 0.00
0.00 0.00 0.00 0.00 0.00 0.00 0.00 0.00 0.00 0.00 0.00 0.00 0.00 0.06 0.13 0.16 0.15 0.16 0.19 0.23 0.28 0.28 0.34 0.47 0.49 0.47 0.45 0.46 0.41 0.32 0.26 0.29 0.31 0.28 0.21 0.15 0.08 0.02 0.00 0.00 0.00 0.01 0.00
0.00 0.00 0.00 0.00 0.00 0.00 0.00 0.00 0.00 0.00 0.00 0.00 0.01 0.03 0.03 0.06 0.10 0.15 0.18 0.20 0.25 0.38 0.55 0.72 0.88 0.90 0.83 0.76 0.61 0.44 0.30 0.26 0.19 0.19 0.21 0.17 0.06 0.01 0.00 0.00 0.00 0.00 0.00
0.00 0.00 0.00 0.00 0.00 0.00 0.00 0.00 0.00 0.00 0.00 0.00 0.02 0.04 0.04 0.06 0.08 0.12 0.15 0.18 0.28 0.40 0.51 0.63 0.78 0.92 0.96 1.05 1.00 0.74 0.50 0.38 0.34 0.32 0.19 0.09 0.04 0.00 0.00 0.00 0.00 0.00 0.00
0.01 0.01 0.01 0.00 0.00 0.00 0.00 0.00 0.00 0.01 0.01 0.03 0.05 0.06 0.09 0.15 0.21 0.25 0.30 0.36 0.43 0.48 0.54 0.57 0.59 0.63 0.70 0.77 0.77 0.68 0.55 0.34 0.25 0.19 0.15 0.09 0.03 0.01 0.00 0.00 0.00 0.00 0.00
0.09 0.08 0.08 0.08 0.07 0.03 0.01 0.01 0.01 0.02 0.06 0.14 0.17 0.21 0.26 0.36 0.42 0.47 0.50 0.49 0.49 0.54 0.51 0.52 0.49 0.51 0.55 0.52 0.55 0.52 0.42 0.31 0.18 0.10 0.07 0.04 0.02 0.01 0.00 0.00 0.00 0.00 0.00
0.04 0.09 0.15 0.21 0.27 0.26 0.21 0.16 0.16 0.19 0.26 0.34 0.40 0.49 0.58 0.63 0.68 0.71 0.81 0.90 0.81 0.88 0.75 0.68 0.62 0.62 0.60 0.61 0.55 0.44 0.33 0.23 0.13 0.09 0.06 0.04 0.03 0.01 0.00 0.00 0.00 0.00 0.01